Lid_Strength_Index
5 5 4 4 4 4 4 4 5 4 4 4 4 4 3 3 3 3 4 4 4 4 4 4 5 6 8 8 7 5 7 7 7 5 4 3 3 3 3 3 2 3 3
4 5 4 4 5 5 5 5 4 4 4 4 4 4 3 3 4 4 4 4 4 4 4 4 4 4 5 6 3 3 4 5 5 4 5 7 6 7 7 6 4 4 6
3 4 4 5 6 6 6 5 4 5 5 4 4 4 4 4 5 5 5 4 4 4 4 3 4 4 5 5 5 5 4 3 3 4 7 8 8 9 8 8 7 7 5
3 3 3 4 5 5 4 4 4 4 4 4 5 4 4 4 4 5 6 7 7 7 7 6 5 5 5 5 5 5 4 4 5 7 9 10 10 9 9 9 9 9 10
3 3 3 4 5 5 4 5 5 5 5 4 4 4 4 4 4 6 7 8 8 8 8 7 7 5 3 5 6 6 5 7 9 9 10 11 11 11 10 10 11 11 10
3 3 3 4 5 4 5 5 5 5 6 5 5 4 5 4 7 7 8 9 10 10 10 10 8 6 6 6 5 6 6 8 9 9 11 11 12 12 11 11 12 12 12
2 2 2 3 4 5 5 5 6 7 7 7 7 6 6 6 8 8 8 11 12 12 12 12 11 8 8 8 7 7 7 7 7 9 10 11 11 11 11 13 13 14 13
2 2 2 3 5 5 5 6 7 8 8 8 8 7 7 6 8 9 9 11 12 12 12 13 13 11 10 10 10 10 11 11 11 10 10 11 12 11 11 12 12 12 12
2 2 2 3 5 5 5 6 7 7 8 8 8 8 7 7 8 9 9 10 11 11 10 10 12 13 11 11 11 12 12 12 11 10 10 11 11 11 10 11 13 13 14
2 2 2 2 4 5 5 6 6 7 7 7 8 8 8 7 9 9 8 8 9 9 8 8 8 11 11 11 12 13 13 13 14 14 14 13 12 11 9 12 13 14 14
1 1 1 2 3 4 5 5 5 6 7 7 8 8 8 8 8 10 9 7 7 8 8 9 8 10 10 11 12 14 13 14 13 15 15 15 14 14 13 12 13 13 14
2 2 2 2 1 3 4 5 4 5 6 7 8 8 8 9 9 10 10 9 8 8 8 8 10 11 11 12 12 13 13 13 15 15 16 15 15 14 13 13 12 12 12
2 2 2 2 1 2 3 4 5 5 5 5 6 6 6 6 7 9 10 10 10 8 9 10 11 12 12 12 12 12 13 15 16 16 15 15 14 13 12 12 11 11 11
2 2 2 2 2 2 2 3 3 3 3 4 5 5 5 6 5 6 8 10 10 9 9 10 10 11 12 12 13 13 13 13 15 15 14 13 12 12 11 10 10 11 11
3 2 2 2 2 2 2 3 3 3 3 4 4 4 5 6 6 7 7 8 11 11 12 14 14 14 14 14 14 15 14 14 12 11 12 12 12 11 10 10 9 10 11
4 4 2 2 2 2 2 2 7 7 8 8 9 6 4 9 9 10 10 10 12 13 12 13 11 11 12 11 11 12 14 13 13 12 12 11 10 10 10 10 10 11 12
4 4 4 4 2 2 2 2 3 3 8 10 9 10 10 11 11 11 11 11 12 12 9 8 10 9 11 11 11 11 12 12 12 12 12 11 11 10 11 10 11 12 13
4 8 4 4 3 3 2 2 2 2 3 3 11 10 11 11 11 11 12 10 11 12 9 8 7 9 11 10 11 13 13 14 15 14 14 13 12 11 10 10 10 11 12
5 5 4 4 4 3 2 2 2 2 3 3 9 11 12 13 13 14 13 6 8 10 9 9 8 8 9 10 12 14 14 15 15 14 14 12 10 10 10 9 9 12 12
5 7 6 4 4 3 2 2 2 2 3 4 7 9 11 10 9 8 9 7 7 7 8 8 9 10 12 13 14 14 15 14 14 14 13 12 10 9 10 10 10 10 10
5 6 8 5 5 4 4 4 4 4 5 8 9 10 13 8 9 8 8 9 9 10 10 11 13 13 13 13 13 13 14 13 13 13 12 10 9 9 9 9 9 10 10
5 4 3 4 4 4 5 6 6 8 9 9 9 10 13 9 10 11 11 11 12 12 12 12 12 12 12 12 12 12 12 12 11 11 10 9 9 9 9 9 9 9 10
4 4 5 5 6 9 6 6 7 8 8 9 8 9 9 10 10 10 11 10 11 11 12 12 12 12 12 12 11 11 10 9 9 9 9 9 9 9 8 9 8 9 10
4 4 4 5 5 6 6 6 7 10 8 8 9 10 11 10 11 11 11 11 11 11 12 11 11 11 11 11 11 10 10 10 9 8 8 8 8 9 8 8 8 8 7
4 4 5 6 6 7 7 8 9 9 9 9 10 11 11 11 11 11 12 12 11 11 12 12 11 11 11 11 10 10 11 11 10 10 9 9 9 8 7 7 7 7 8
4 5 6 6 6 7 8 9 10 10 10 10 11 11 10 10 10 11 11 11 11 11 11 11 10 10 9 9 10 11 12 12 12 12 9 8 7 6 5 6 6 6 7